H1 CPF 2 NER 2022 12 30 9 364 01 glonass134 H2 1407501 9134 40315 2022 12 30 0 0 0 2023 1 2 23 45 0 900 1 1 0 0 0 1 H9 10 0 59943 0.00000 0 18658825.829 -7199345.288 -15773403.061 10 0 59943 900.00000 0 17168644.046 -5742822.269 -17921635.287 10 0 59943 1800.00000 0 15627388.087 -3999633.240 -19720389.638 10 0 59943 2700.00000 0 14094780.852 -1993562.387 -21134768.084 10 0 59943 3600.00000 0 12626517.417 240052.300 -22137419.270 10 0 59943 4500.00000 0 11271972.747 2655551.352 -22709058.998 10 0 59943 5400.00000 0 10072200.159 5198622.789 -22838828.832 10 0 59943 6300.00000 0 9058303.603 7808337.252 -22524487.333 10 0 59943 7200.00000 0 8250250.475 10419463.701 -21772431.825 10 0 59943 8100.00000 0 7656172.515 12964968.887 -20597552.024 10 0 59943 9000.00000 0 7272181.519 15378596.659 -19022919.960 10 0 59943 9900.00000 0 7082704.923 17597420.284 -17079323.682 10 0 59943 10800.00000 0 7061324.504 19564262.728 -14804654.938 10 0 59943 11700.00000 0 7172080.653 21229885.736 -12243163.544 10 0 59943 12600.00000 0 7371185.534 22554858.402 -9444593.488 10 0 59943 13500.00000 0 7609071.762 23511029.592 -6463217.673 10 0 59943 14400.00000 0 7832689.658 24082545.008 -3356789.875 10 0 59943 15300.00000 0 7987956.223 24266368.553 -185433.907 10 0 59943 16200.00000 0 8022253.013 24072288.082 2989509.204 10 0 59943 17100.00000 0 7886868.335 23522406.743 6106654.601 10 0 59943 18000.00000 0 7539281.747 22650142.105 9105745.818 10 0 59943 18900.00000 0 6945195.466 21498775.269 11928804.398 10 0 59943 19800.00000 0 6080227.699 20119610.441 14521236.010 10 0 59943 20700.00000 0 4931196.887 18569821.171 16832872.879 10 0 59943 21600.00000 0 3496942.432 16910072.137 18818933.706 10 0 59943 22500.00000 0 1788646.388 15202014.387 20440883.589 10 0 59943 23400.00000 0 -170359.130 13505757.145 21667178.148 10 0 59943 24300.00000 0 -2345293.128 11877420.290 22473877.968 10 0 59943 25200.00000 0 -4691109.137 10366868.425 22845121.574 10 0 59943 26100.00000 0 -7154114.535 9015720.365 22773447.349 10 0 59943 27000.00000 0 -9673961.472 7855716.803 22259957.286 10 0 59943 27900.00000 0 -12185929.455 6907514.514 21314318.044 10 0 59943 28800.00000 0 -14623406.926 6179958.206 19954597.553 10 0 59943 29700.00000 0 -16920470.308 5669861.496 18206938.341 10 0 59943 30600.00000 0 -19014454.092 5362307.408 16105071.847 10 0 59943 31500.00000 0 -20848404.835 5231457.028 13689681.196 10 0 59943 32400.00000 0 -22373316.052 5241833.266 11007623.164 10 0 59943 33300.00000 0 -23550049.305 5350026.226 8111023.210 10 0 59943 34200.00000 0 -24350859.328 5506748.230 5056260.673 10 0 59943 35100.00000 0 -24760457.489 5659150.941 1902863.925 10 0 59943 36000.00000 0 -24776567.249 5753305.188 -1287662.237 10 0 59943 36900.00000 0 -24409947.004 5736736.517 -4453052.708 10 0 59943 37800.00000 0 -23683878.717 5560906.617 -7531516.160 10 0 59943 38700.00000 0 -22633143.897 5183532.806 -10462960.988 10 0 59943 39600.00000 0 -21302530.828 4570644.684 -13190186.934 10 0 59943 40500.00000 0 -19744937.299 3698288.496 -15660017.206 10 0 59943 41400.00000 0 -18019150.498 2553805.096 -17824347.377 10 0 59943 42300.00000 0 -16187399.487 1136626.194 -19641089.416 10 0 59943 43200.00000 0 -14312785.041 -541445.543 -21074991.922 10 0 59943 44100.00000 0 -12456696.296 -2456484.558 -22098320.676 10 0 59943 45000.00000 0 -10676323.614 -4573207.918 -22691386.824 10 0 59943 45900.00000 0 -9022372.102 -6846225.600 -22842913.564 10 0 59943 46800.00000 0 -7537070.976 -9221722.473 -22550235.643 10 0 59943 47700.00000 0 -6252560.787 -11639500.904 -21819329.438 10 0 59943 48600.00000 0 -5189723.916 -14035298.203 -20664674.754 10 0 59943 49500.00000 0 -4357504.716 -16343282.090 -19108952.630 10 0 59943 50400.00000 0 -3752744.921 -18498620.355 -17182586.489 10 0 59943 51300.00000 0 -3360538.249 -20440018.355 -14923136.708 10 0 59943 52200.00000 0 -3155086.537 -22112119.789 -12374561.196 10 0 59943 53100.00000 0 -3101019.071 -23467672.160 -9586356.903 10 0 59943 54000.00000 0 -3155117.787 -24469368.471 -6612599.103 10 0 59943 54900.00000 0 -3268374.459 -25091290.259 -3510896.939 10 0 59943 55800.00000 0 -3388292.675 -25319893.603 -341285.146 10 0 59943 56700.00000 0 -3461337.531 -25154498.695 2834927.244 10 0 59943 57600.00000 0 -3435430.239 -24607263.898 5956329.817 10 0 59943 58500.00000 0 -3262383.217 -23702646.325 8962583.582 10 0 59943 59400.00000 0 -2900173.908 -22476371.920 11795572.219 10 0 59943 60300.00000 0 -2314962.263 -20973957.914 14400510.782 10 0 59943 61200.00000 0 -1482767.448 -19248848.712 16726991.706 10 0 59943 62100.00000 0 -390733.218 -17360241.899 18729949.139 10 0 59943 63000.00000 0 962071.848 -15370693.539 20370524.127 10 0 59943 63900.00000 0 2564354.119 -13343601.015 21616814.703 10 0 59943 64800.00000 0 4392809.276 -11340666.598 22444496.956 10 0 59943 65700.00000 0 6412844.892 -9419445.881 22837305.164 10 0 59943 66600.00000 0 8579783.953 -7631082.068 22787361.292 10 0 59943 67500.00000 0 10840502.282 -6018319.732 22295346.635 10 0 59943 68400.00000 0 13135434.627 -4613880.549 21370510.919 10 0 59943 69300.00000 0 15400868.439 -3439269.098 20030516.976 10 0 59943 70200.00000 0 17571431.865 -2504059.207 18301122.023 10 0 59943 71100.00000 0 19582673.544 -1805691.666 16215699.610 10 0 59943 72000.00000 0 21373626.970 -1329792.853 13814609.607 10 0 59943 72900.00000 0 22889251.958 -1051001.832 11144426.749 10 0 59943 73800.00000 0 24082649.969 -934271.748 8257041.495 10 0 59943 74700.00000 0 24916958.772 -936590.847 5208650.134 10 0 59943 75600.00000 0 25366845.028 -1009049.972 2058653.843 10 0 59943 76500.00000 0 25419530.083 -1099167.990 -1131511.191 10 0 59943 77400.00000 0 25075304.110 -1153374.983 -4299588.330 10 0 59943 78300.00000 0 24347505.697 -1119545.744 -7383734.302 10 0 59943 79200.00000 0 23261967.166 -949473.651 -10323746.129 10 0 59943 80100.00000 0 21855949.108 -601177.420 -13062255.023 10 0 59943 81000.00000 0 20176609.807 -40940.519 -15545861.963 10 0 59943 81900.00000 0 18279075.293 755005.265 -17726191.196 10 0 59943 82800.00000 0 16224192.907 1799224.891 -19560839.860 10 0 59943 83700.00000 0 14076064.505 3092307.836 -21014204.691 10 0 59943 84600.00000 0 11899464.346 4622611.576 -22058169.730 10 0 59943 85500.00000 0 9757251.100 6366531.417 -22672642.217 10 0 59944 0.00000 0 7707882.970 8289284.715 -22845927.344 10 0 59944 900.00000 0 5803138.533 10346176.863 -22574936.035 10 0 59944 1800.00000 0 4086140.291 12484292.531 -21865223.237 10 0 59944 2700.00000 0 2589758.029 14644544.172 -20730857.971 10 0 59944 3600.00000 0 1335459.052 16763989.145 -19194129.003 10 0 59944 4500.00000 0 332649.395 18778319.569 -17285093.462 10 0 59944 5400.00000 0 -421469.340 20624421.129 -15040978.321 10 0 59944 6300.00000 0 -941524.629 22242894.834 -12505447.223 10 0 59944 7200.00000 0 -1253097.662 23580437.534 -9727747.443 10 0 59944 8100.00000 0 -1391387.123 24591983.333 -6761753.774 10 0 59944 9000.00000 0 -1399470.093 25242518.094 -3664927.702 10 0 59944 9900.00000 0 -1326234.345 25508492.891 -497211.782 10 0 59944 10800.00000 0 -1224069.660 25378778.961 2680120.056 10 0 59944 11700.00000 0 -1146415.336 24855125.536 5805634.877 10 0 59944 12600.00000 0 -1145266.743 23952102.354 8818914.063 10 0 59944 13500.00000 0 -1268745.214 22696529.700 11661706.113 10 0 59944 14400.00000 0 -1558832.848 21126419.664 14279037.924 10 0 59944 15300.00000 0 -2049366.854 19289472.175 16620264.316 10 0 59944 16200.00000 0 -2764377.525 17241187.416 18640036.788 10 0 59944 17100.00000 0 -3716839.863 15042671.701 20299173.949 10 0 59944 18000.00000 0 -4907892.071 12758226.455 21565417.572 10 0 59944 18900.00000 0 -6326555.174 10452818.731 22414060.271 10 0 59944 19800.00000 0 -7949967.660 8189536.652 22828432.767 10 0 59944 20700.00000 0 -9744127.912 6027134.122 22800240.925 10 0 59944 21600.00000 0 -11665116.400 4017765.748 22329745.235 10 0 59944 22500.00000 0 -13660749.593 2205005.534 21425777.936 10 0 59944 23400.00000 0 -15672599.369 622231.750 20105595.716 10 0 59944 24300.00000 0 -17638295.949 -708554.364 18394568.916 10 0 59944 25200.00000 0 -19494019.934 -1777426.085 16325711.152 10 0 59944 26100.00000 0 -21177080.096 -2586714.721 13939056.529 10 0 59944 27000.00000 0 -22628469.091 -3150670.616 11280894.853 10 0 59944 27900.00000 0 -23795289.255 -3494615.141 8402878.387 10 0 59944 28800.00000 0 -24632945.164 -3653619.026 5361016.990 10 0 59944 29700.00000 0 -25107008.910 -3670763.003 2214581.149 10 0 59944 30600.00000 0 -25194677.490 -3595055.084 -975065.053 10 0 59944 31500.00000 0 -24885758.819 -3479094.030 -4145676.876 10 0 59944 32400.00000 0 -24183143.120 -3376579.995 -7235362.403 10 0 59944 33300.00000 0 -23102738.606 -3339780.229 -10183810.416 10 0 59944 34200.00000 0 -21672873.649 -3417059.848 -12933486.493 10 0 59944 35100.00000 0 -19933190.814 -3650584.845 -15430771.998 10 0 59944 36000.00000 0 -17933080.104 -4074296.901 -17627022.097 10 0 59944 36900.00000 0 -15729718.600 -4712247.478 -19479520.894 10 0 59944 37800.00000 0 -13385800.351 -5577362.855 -20952314.522 10 0 59944 38700.00000 0 -10967053.182 -6670692.834 -22016905.965 10 0 59944 39600.00000 0 -8539647.714 -7981174.777 -22652798.620 10 0 59944 40500.00000 0 -6167607.676 -9485922.448 -22847879.120 10 0 59944 41400.00000 0 -3910329.730 -11151026.711 -22598633.403 10 0 59944 42300.00000 0 -1820315.773 -12932833.491 -21910193.446 10 0 59944 43200.00000 0 58789.202 -14779644.468 -20796215.477 10 0 59944 44100.00000 0 1693773.937 -16633768.545 -19278593.645 10 0 59944 45000.00000 0 3062989.264 -18433837.726 -17387016.195 10 0 59944 45900.00000 0 4156983.950 -20117290.485 -15158373.947 10 0 59944 46800.00000 0 4978624.619 -21622919.162 -12636033.432 10 0 59944 47700.00000 0 5542697.786 -22893375.587 -9868989.388 10 0 59944 48600.00000 0 5875013.439 -23877531.287 -6910913.283 10 0 59944 49500.00000 0 6011050.064 -24532594.936 -3819116.194 10 0 59944 50400.00000 0 5994199.673 -24825899.892 -653445.856 10 0 59944 51300.00000 0 5873687.628 -24736288.497 2524861.392 10 0 59944 52200.00000 0 5702255.198 -24255036.432 5654352.421 10 0 59944 53100.00000 0 5533702.204 -23386279.383 8674531.126 10 0 59944 54000.00000 0 5420392.662 -22146924.605 11527012.779 10 0 59944 54900.00000 0 5410827.623 -20566050.997 14156637.862 10 0 59944 55800.00000 0 5547386.561 -18683822.121 16512525.094 10 0 59944 56700.00000 0 5864331.647 -16549956.331 18549044.608 10 0 59944 57600.00000 0 6386158.580 -14221816.130 20226693.583 10 0 59944 58500.00000 0 7126363.483 -11762194.375 21512858.263 10 0 59944 59400.00000 0 8086678.545 -9236887.324 22382448.221 10 0 59944 60300.00000 0 9256810.020 -6712153.214 22818390.761 10 0 59944 61200.00000 0 10614691.678 -4252160.178 22811975.502 10 0 59944 62100.00000 0 12127245.732 -1916527.915 22363041.728 10 0 59944 63000.00000 0 13751622.245 241935.824 21480003.525 10 0 59944 63900.00000 0 15436867.952 2179210.253 20179710.541 10 0 59944 64800.00000 0 17125957.251 3861665.919 18487145.133 10 0 59944 65700.00000 0 18758102.359 5267231.068 16434959.645 10 0 59944 66600.00000 0 20271247.134 6386070.487 14062860.856 10 0 59944 67500.00000 0 21604640.447 7220747.543 11416851.833 10 0 59944 68400.00000 0 22701380.696 7785861.804 8548344.591 10 0 59944 69300.00000 0 23510823.276 8107176.917 5513160.249 10 0 59944 70200.00000 0 23990747.928 8220275.433 2370436.064 10 0 59944 71100.00000 0 24109192.458 8168797.889 -818538.707 10 0 59944 72000.00000 0 23845873.244 8002341.662 -3991534.069 10 0 59944 72900.00000 0 23193130.486 7774110.302 -7086612.328 10 0 59944 73800.00000 0 22156356.617 7538415.091 -10043356.826 10 0 59944 74700.00000 0 20753888.698 7348137.117 -12804070.141 10 0 59944 75600.00000 0 19016368.906 7252259.968 -15314916.417 10 0 59944 76500.00000 0 16985600.229 7293579.855 -17526983.851 10 0 59944 77400.00000 0 14712946.348 7506692.011 -19397245.332 10 0 59944 78300.00000 0 12257344.056 7916339.917 -20889397.925 10 0 59944 79200.00000 0 9683012.842 8536197.815 -21974564.796 10 0 59944 80100.00000 0 7056958.830 9368137.980 -22631846.463 10 0 59944 81000.00000 0 4446378.263 10402013.143 -22848711.661 10 0 59944 81900.00000 0 1916069.258 11615962.368 -22621221.699 10 0 59944 82800.00000 0 -474040.465 12977226.321 -21954085.501 10 0 59944 83700.00000 0 -2671147.922 14443436.496 -20860546.041 10 0 59944 84600.00000 0 -4631519.132 15964323.206 -19362101.964 10 0 59944 85500.00000 0 -6322044.578 17483769.830 -17488071.321 10 0 59945 0.00000 0 -7721343.784 18942126.624 -15275007.277 10 0 59945 900.00000 0 -8820376.717 20278687.882 -12765976.780 10 0 59945 1800.00000 0 -9622537.746 21434227.042 -10009719.853 10 0 59945 2700.00000 0 -10143233.731 22353486.950 -7059702.041 10 0 59945 3600.00000 0 -10408964.541 22987520.007 -3973081.253 10 0 59945 4500.00000 0 -10455947.404 23295782.185 -809607.551 10 0 59945 5400.00000 0 -10328344.165 23247894.316 2369523.216 10 0 59945 6300.00000 0 -10076166.733 22824998.020 5502840.594 10 0 59945 7200.00000 0 -9752948.934 22020650.369 8529773.811 10 0 59945 8100.00000 0 -9413282.393 20841220.300 11391807.613 10 0 59945 9000.00000 0 -9110319.379 19305770.161 14033598.637 10 0 59945 9900.00000 0 -8893346.752 17445426.749 16404031.908 10 0 59945 10800.00000 0 -8805532.172 15302266.949 18457198.389 10 0 59945 11700.00000 0 -8881936.625 12927762.695 20153275.818 10 0 59945 12600.00000 0 -9147876.526 10380848.035 21459296.650 10 0 59945 13500.00000 0 -9617704.432 7725686.328 22349788.885 10 0 59945 14400.00000 0 -10294060.494 5029227.972 22807277.550 10 0 59945 15300.00000 0 -11167627.523 2358657.915 22822636.809 10 0 59945 16200.00000 0 -12217402.070 -221163.052 22395285.107 10 0 59945 17100.00000 0 -13411472.602 -2650158.478 21533218.288 10 0 59945 18000.00000 0 -14708274.801 -4875296.541 20252878.383 10 0 59945 18900.00000 0 -16058273.887 -6852556.845 18578858.663 10 0 59945 19800.00000 0 -17406005.612 -8548521.623 16543448.585 10 0 59945 20700.00000 0 -18692391.805 -9941524.294 14186025.504 10 0 59945 21600.00000 0 -19857234.059 -11022306.523 11552303.210 10 0 59945 22500.00000 0 -20841780.660 -11794155.337 8693450.573 10 0 59945 23400.00000 0 -21591257.842 -12272513.751 5665096.791 10 0 59945 24300.00000 0 -22057257.103 -12484080.926 2526242.519 10 0 59945 25200.00000 0 -22199875.806 -12465439.957 -661901.293 10 0 59945 26100.00000 0 -21989518.300 -12261271.963 -3837122.912 10 0 59945 27000.00000 0 -21408279.158 -11922233.392 -6937442.361 10 0 59945 27900.00000 0 -20450847.973 -11502588.301 -9902340.941 10 0 59945 28800.00000 0 -19124895.911 -11057698.144 -12673961.487 10 0 59945 29700.00000 0 -17450926.712 -10641477.810 -15198253.954 10 0 59945 30600.00000 0 -15461598.014 -10303928.003 -17426042.292 10 0 59945 31500.00000 0 -13200541.920 -10088850.386 -19313990.491 10 0 59945 32400.00000 0 -10720735.056 -10031843.659 -20825448.350 10 0 59945 33300.00000 0 -8082487.550 -10158666.098 -21931160.454 10 0 59945 34200.00000 0 -5351136.269 -10484033.842 -22609825.030 10 0 59945 35100.00000 0 -2594539.658 -11010905.192 -22848492.891 10 0 59945 36000.00000 0 119520.746 -11730280.044 -22642800.065 10 0 59945 36900.00000 0 2725923.744 -12621521.590 -21997031.249 10 0 59945 37800.00000 0 5164669.917 -13653185.225 -20924014.511 10 0 59945 38700.00000 0 7383119.999 -14784318.358 -19444850.966 10 0 59945 39600.00000 0 9337918.855 -15966175.238 -17588486.129 10 0 59945 40500.00000 0 10996527.508 -17144273.846 -15391132.488 10 0 59945 41400.00000 0 12338302.235 -18260708.004 -12895555.411 10 0 59945 42300.00000 0 13355078.674 -19256617.566 -10150236.858 10 0 59945 43200.00000 0 14051239.593 -20074713.394 -7208433.379 10 0 59945 44100.00000 0 14443266.224 -20661751.896 -4127146.560 10 0 59945 45000.00000 0 14558794.223 -20970856.244 -966025.638 10 0 59945 45900.00000 0 14435215.644 -20963587.992 2213777.107 10 0 59945 46800.00000 0 14117886.708 -20611683.245 5350776.846 10 0 59945 47700.00000 0 13658017.130 -19898381.461 8384330.865 10 0 59945 48600.00000 0 13110329.600 -18819291.697 11255795.850 10 0 59945 49500.00000 0 12530587.220 -17382760.067 13909646.728 10 0 59945 50400.00000 0 11973091.912 -15609722.570 16294536.620 10 0 59945 51300.00000 0 11488257.879 -13533048.301 18364278.747 10 0 59945 52200.00000 0 11120361.108 -11196398.773 20078732.452 10 0 59945 53100.00000 0 10905558.692 -8652648.828 21404577.080 10 0 59945 54000.00000 0 10870260.858 -5961932.326 22315959.363 10 0 59945 54900.00000 0 11029924.254 -3189391.252 22795002.026 10 0 59945 55800.00000 0 11388318.035 -402719.211 22832163.414 10 0 59945 56700.00000 0 11937294.959 2330401.025 22426440.481 10 0 59945 57600.00000 0 12657079.052 4944861.468 21585409.910 10 0 59945 58500.00000 0 13517060.043 7380589.135 20325104.953 10 0 59945 59400.00000 0 14477063.516 9584801.019 18669728.412 10 0 59945 60300.00000 0 15489045.640 11513960.095 16651205.279 10 0 59945 61200.00000 0 16499142.943 13135350.281 14308581.698 10 0 59945 62100.00000 0 17449991.993 14428203.818 11687280.214 10 0 59945 63000.00000 0 18283221.625 15384332.852 8838224.378 10 0 59945 63900.00000 0 18942012.111 16008237.699 5816849.114 10 0 59945 64800.00000 0 19373612.016 16316686.599 2682015.961 10 0 59945 65700.00000 0 19531704.491 16337784.349 -505145.075 10 0 59945 66600.00000 0 19378520.676 16109569.467 -3682443.206 10 0 59945 67500.00000 0 18886608.373 15678200.087 -6787858.839 10 0 59945 68400.00000 0 18040178.807 15095806.877 -9760773.799 10 0 59945 69300.00000 0 16835972.542 14418105.822 -12543173.563 10 0 59945 70200.00000 0 15283606.480 13701874.199 -15080796.056 10 0 59945 71100.00000 0 13405386.370 13002398.838 -17324202.893 10 0 59945 72000.00000 0 11235592.540 12371006.723 -19229750.814 10 0 59945 72900.00000 0 8819269.154 11852783.912 -20760443.769 10 0 59945 73800.00000 0 6210568.489 11484580.175 -21886648.937 10 0 59945 74700.00000 0 3470720.593 11293383.878 -22586663.217 10 0 59945 75600.00000 0 665714.072 11295135.226 -22847120.190 10 0 59945 76500.00000 0 -2136214.519 11494026.870 -22663231.033 10 0 59945 77400.00000 0 -4867177.691 11882319.802 -22038856.277 10 0 59945 78300.00000 0 -7462212.630 12440680.516 -20986408.775 10 0 59945 79200.00000 0 -9861729.125 13139023.367 -19526591.368 10 0 59945 80100.00000 0 -12013729.459 13937820.974 -17687975.867 10 0 59945 81000.00000 0 -13875709.976 14789826.122 -15506432.744 10 0 59945 81900.00000 0 -15416167.714 15642131.748 -13024423.487 10 0 59945 82800.00000 0 -16615652.030 16438481.848 -10290170.028 10 0 59945 83700.00000 0 -17467320.245 17121736.087 -7356717.560 10 0 59945 84600.00000 0 -17976976.856 17636384.898 -4280908.872 10 0 59945 85500.00000 0 -18162597.046 17931010.011 -1122289.820 10 0 59946 0.00000 0 -18053356.486 17960587.981 2058033.193 10 0 59946 900.00000 0 -17688209.340 17688540.833 5198564.149 10 0 59946 1800.00000 0 -17114075.112 17088448.632 8238590.705 10 0 59946 2700.00000 0 -16383710.383 16145352.723 11119344.082 10 0 59946 3600.00000 0 -15553354.457 14856595.082 13785120.036 10 0 59946 4500.00000 0 -14680246.936 13232158.334 16184342.244 10 0 59946 5400.00000 0 -13820120.325 11294491.247 18270548.521 10 0 59946 6300.00000 0 -13024771.712 9077825.395 20003281.982 10 0 59946 7200.00000 0 -12339814.337 6627009.456 21348870.802 10 0 59946 8100.00000 0 -11802702.601 3995907.157 22281082.129 10 0 59946 9000.00000 0 -11441112.981 1245422.706 22781637.742 10 0 59946 9900.00000 0 -11271749.008 -1558766.966 22840581.175 10 0 59946 10800.00000 0 -11299621.181 -4348681.640 22456488.494 10 0 59946 11700.00000 0 -11517833.392 -7056608.704 21636517.400 10 0 59946 12600.00000 0 -11907886.541 -9617670.357 20396292.089 10 0 59946 13500.00000 0 -12440488.599 -11972281.582 18759624.159 10 0 59946 14400.00000 0 -13076839.037 -14068397.055 16758072.925 10 0 59946 15300.00000 0 -13770335.299 -15863453.038 14430351.680 10 0 59946 16200.00000 0 -14468630.721 -17325922.526 11821589.665 10 0 59946 17100.00000 0 -15115957.699 -18436417.533 8982462.717 10 0 59946 18000.00000 0 -15655617.861 -19188291.067 5968208.797 10 0 59946 18900.00000 0 -16032533.069 -19587712.536 2837547.419 10 0 59946 19800.00000 0 -16195747.703 -19653212.706 -348475.433 10 0 59946 20700.00000 0 -16100774.156 -19414717.229 -3527693.113 10 0 59946 21600.00000 0 -15711679.774 -18912110.024 -6638049.677 10 0 59946 22500.00000 0 -15002824.344 -18193388.317 -9618830.772 10 0 59946 23400.00000 0 -13960172.330 -17312489.007 -12411867.786 10 0 59946 24300.00000 0 -12582122.454 -16326880.300 -14962689.791 10 0 59946 25200.00000 0 -10879818.223 -15295022.661 -17221599.047 10 0 59946 26100.00000 0 -8876925.626 -14273808.475 -19144647.745 10 0 59946 27000.00000 0 -6608887.202 -13316090.316 -20694496.287 10 0 59946 27900.00000 0 -4121684.140 -12468403.311 -21841136.276 10 0 59946 28800.00000 0 -1470159.042 -11768978.185 -22562464.564 10 0 59946 29700.00000 0 1284029.672 -11246128.403 -22844698.222 10 0 59946 30600.00000 0 4074735.611 -10917078.390 -22682623.728 10 0 59946 31500.00000 0 6833836.874 -10787280.548 -22079677.092 10 0 59946 32400.00000 0 9493828.500 -10850247.822 -21047855.116 10 0 59946 33300.00000 0 11990387.553 -11087906.637 -19607461.118 10 0 59946 34200.00000 0 14264805.092 -11471453.175 -17786691.570 10 0 59946 35100.00000 0 16266185.556 -11962675.009 -15621072.914 10 0 59946 36000.00000 0 17953324.117 -12515680.883 -13152760.406 10 0 59946 36900.00000 0 19296186.203 -13078964.738 -10429713.237 10 0 59946 37800.00000 0 20276930.170 -13597716.560 -7504762.226 10 0 59946 38700.00000 0 20890433.048 -14016282.683 -4434588.083 10 0 59946 39600.00000 0 21144299.798 -14280672.387 -1278629.817 10 0 59946 40500.00000 0 21058357.739 -14341005.983 1902056.163 10 0 59946 41400.00000 0 20663658.890 -14153802.238 5045965.002 10 0 59946 42300.00000 0 20001032.976 -13684009.823 8092318.662 10 0 59946 43200.00000 0 19119252.114 -12906698.072 10982225.974 10 0 59946 44100.00000 0 18072883.901 -11808336.407 13659806.268 10 0 59946 45000.00000 0 16919922.191 -10387608.600 16073256.119 10 0 59946 45900.00000 0 15719293.798 -8655727.057 18175839.847 10 0 59946 46800.00000 0 14528344.287 -6636232.564 19926785.819 10 0 59946 47700.00000 0 13400406.905 -4364285.955 21292072.092 10 0 59946 48600.00000 0 12382555.338 -1885478.748 22245086.860 10 0 59946 49500.00000 0 11513633.545 745790.567 22767151.197 10 0 59946 50400.00000 0 10822644.897 3468309.934 22847893.684 10 0 59946 51300.00000 0 10327568.222 6216336.937 22485468.993 10 0 59946 52200.00000 0 10034651.125 8922079.549 21686614.999 10 0 59946 53100.00000 0 9938211.408 11518273.397 20466545.663 10 0 59946 54000.00000 0 10020956.455 13940749.927 18848679.917 10 0 59946 54900.00000 0 10254808.816 16130889.358 16864209.664 10 0 59946 55800.00000 0 10602204.867 18037856.209 14551513.361 10 0 59946 56700.00000 0 11017813.068 19620523.526 11955424.737 10 0 59946 57600.00000 0 11450600.113 20849004.282 9126369.495 10 0 59946 58500.00000 0 11846157.746 21705724.430 6119386.034 10 0 59946 59400.00000 0 12149191.206 22185991.252 2993049.102 10 0 59946 60300.00000 0 12306062.568 22298032.005 -191682.163 10 0 59946 61200.00000 0 12267279.315 22062500.571 -3372668.107 10 0 59946 62100.00000 0 11989820.266 21511472.883 -6487819.220 10 0 59946 63000.00000 0 11439197.776 20686974.143 -9476327.609 10 0 59946 63900.00000 0 10591166.348 19639101.241 -12279873.007 10 0 59946 64800.00000 0 9433003.159 18423821.446 -14843777.807 10 0 59946 65700.00000 0 7964304.625 17100542.303 -17118086.821 10 0 59946 66600.00000 0 6197264.263 15729557.426 -19058549.330 10 0 59946 67500.00000 0 4156419.581 14369477.749 -20627483.579 10 0 59946 68400.00000 0 1877878.632 13074757.874 -21794506.741 10 0 59946 69300.00000 0 -591940.840 11893422.459 -22537116.541 10 0 59946 70200.00000 0 -3198006.188 10865088.276 -22841114.202 10 0 59946 71100.00000 0 -5878727.044 10019364.300 -22700861.872 10 0 59946 72000.00000 0 -8568288.316 9374695.610 -22119371.058 10 0 59946 72900.00000 0 -11199161.543 8937697.571 -21108222.139 10 0 59946 73800.00000 0 -13704690.169 8703005.847 -19687318.114 10 0 59946 74700.00000 0 -16021641.705 8653646.016 -17884478.896 10 0 59946 75600.00000 0 -18092621.816 8761904.748 -15734885.309 10 0 59946 76500.00000 0 -19868251.505 8990663.759 -13280384.454 10 0 59946 77400.00000 0 -21309018.719 9295138.706 -10568670.635 10 0 59946 78300.00000 0 -22386729.521 9624948.656 -7652357.979 10 0 59946 79200.00000 0 -23085500.693 9926428.389 -4587962.700 10 0 59946 80100.00000 0 -23402254.530 10145086.072 -1434814.486 10 0 59946 81000.00000 0 -23346697.234 10228103.171 1746082.476 10 0 59946 81900.00000 0 -22940783.389 10126771.964 4893217.604 10 0 59946 82800.00000 0 -22217690.014 9798768.846 7945749.442 10 0 59946 83700.00000 0 -21220343.687 9210168.531 10844666.991 10 0 59946 84600.00000 0 -19999562.332 8337114.950 13533915.708 10 0 59946 85500.00000 0 -18611888.844 7167078.790 15961467.533 99